Lid_Strength_Index
7 11 15 14 14 14 14 14 13 13 13 12 12 11 10 9 9 8 7 5 5 5 3 2 2 1 1 1 1 1 1 0 0 1 1 1 1 0 -0 -1 -1 -1 -1 -1
10 12 11 11 12 13 14 15 15 15 13 13 13 12 10 9 9 8 8 7 6 4 4 4 2 2 2 2 1 1 1 1 0 0 0 0 0 0 -0 -1 -1 -1 -1 -1
11 11 9 11 12 13 14 15 16 15 14 14 15 14 13 11 11 10 8 7 7 6 5 5 4 4 2 2 2 1 1 1 0 0 0 0 0 0 1 0 0 -0 -1 -1
10 8 10 11 13 12 15 12 13 14 15 18 15 17 13 13 12 12 10 9 8 7 6 6 5 5 5 4 3 1 1 1 0 0 1 1 2 2 1 1 0 -0 -1 -1
11 10 10 11 12 10 13 10 12 12 14 15 16 18 15 14 14 13 12 10 9 7 6 5 4 4 4 4 5 5 3 1 1 0 1 1 2 1 1 1 1 0 -0 -1
10 7 8 9 10 9 9 10 11 12 14 18 16 17 17 15 14 13 12 11 11 10 8 8 7 6 6 5 5 4 4 3 1 1 1 1 2 1 2 1 1 1 0 -0
12 11 8 7 10 9 10 12 16 18 18 19 15 17 16 14 13 13 12 11 11 11 11 10 10 10 9 7 6 5 5 5 3 1 1 1 1 1 1 1 1 1 1 1
16 17 11 8 9 12 12 13 15 20 19 19 16 19 17 13 12 12 12 11 11 10 10 10 10 9 9 9 8 7 6 6 4 2 1 1 1 1 1 1 1 1 1 1
15 15 9 8 7 8 12 14 12 15 17 16 16 15 13 12 12 12 12 11 11 11 10 10 10 9 8 7 7 6 6 5 5 4 2 1 2 2 2 2 3 3 3 3
12 16 11 9 7 8 9 9 16 14 19 19 17 17 16 14 13 12 11 11 11 9 9 9 9 9 8 8 8 7 7 7 7 7 6 6 6 5 5 5 5 4 3 2
10 12 14 11 12 12 11 12 12 13 14 18 19 17 12 12 11 11 11 10 9 9 9 9 8 9 9 8 8 8 8 8 8 9 9 8 8 8 7 6 5 4 4 3
11 13 15 14 10 8 8 10 11 15 17 15 16 15 11 11 11 9 10 10 9 9 8 8 8 8 8 8 9 9 9 9 8 9 8 9 9 8 7 7 6 6 5 5
10 13 17 16 12 10 12 10 9 10 11 15 16 15 11 11 11 10 10 9 8 8 8 7 7 7 7 8 8 8 8 8 9 9 8 9 9 9 9 8 8 7 7 7
9 13 15 17 15 12 14 13 11 11 15 14 14 13 12 11 10 9 9 9 8 7 7 7 7 6 6 7 8 8 8 8 9 10 9 9 9 9 8 9 9 9 9 9
10 15 13 13 13 12 13 13 14 14 14 15 12 12 10 10 10 9 9 8 8 8 8 7 7 7 7 7 7 8 9 9 10 10 10 10 10 11 10 11 10 10 10 10
10 14 13 15 13 13 14 13 12 12 13 13 13 13 8 8 8 9 8 8 9 8 8 8 8 8 8 8 7 8 9 9 10 10 10 10 11 11 11 11 11 11 11 12
10 12 14 17 14 14 17 14 13 12 12 11 13 10 9 10 10 9 8 8 8 8 9 9 9 9 9 9 9 9 8 9 10 10 10 10 11 11 11 11 12 12 12 12
11 12 13 16 16 20 14 12 12 12 12 10 11 10 10 9 9 8 8 8 9 9 9 8 8 9 9 10 10 10 10 9 10 10 10 11 11 12 12 12 12 12 12 13
9 11 15 16 17 16 13 12 12 13 12 10 10 10 9 9 9 9 7 8 9 9 9 9 9 10 10 10 11 11 11 10 10 11 11 11 12 12 12 13 13 12 12 13
10 10 13 17 18 20 14 11 10 9 14 9 8 10 10 9 12 10 8 8 8 8 9 10 10 11 11 11 12 12 12 11 11 10 11 11 12 12 12 12 13 13 13 13
12 12 15 16 17 15 11 10 9 15 13 8 9 9 9 10 9 8 8 8 9 9 10 10 11 11 12 12 12 13 12 12 11 11 11 11 12 12 12 12 13 14 14 15
14 15 14 15 17 18 9 11 12 9 8 9 9 8 9 8 8 9 9 9 10 10 10 11 12 12 12 13 13 13 13 12 12 12 11 11 11 11 12 12 13 14 14 14
15 12 13 12 13 9 8 7 7 7 8 9 8 8 9 9 9 9 10 10 10 11 11 12 12 13 12 13 13 14 13 13 13 13 13 13 13 12 12 12 13 13 13 13
13 11 12 13 10 10 9 9 8 8 8 8 8 8 9 9 9 11 11 12 12 12 13 13 14 13 13 13 14 14 14 13 14 13 13 13 14 13 13 13 12 13 13 14
12 13 13 13 11 11 10 10 9 9 10 10 10 10 10 10 11 11 12 13 13 13 13 13 14 14 14 13 14 14 14 14 15 14 13 13 12 13 13 13 13 13 13 13
12 13 14 14 11 11 11 10 10 10 10 11 12 12 12 13 13 13 14 14 15 15 15 15 15 15 15 15 15 15 15 16 16 15 14 13 13 13 13 13 13 12 12 13